Location: Dreilärchen
(47.9312°N, 8.6113°E)
Time: 19:50:58
(UTC+00:00)

Cosmos 1025 Rocket - Pass Details

Date: 26 May 2022
Orbit: 593 x 617 km, 82.5° (Epoch: 02 July)

Event Time Altitude Azimuth Distance (km) Brightness Sun altitude
Exits shadow 00:47:11 33° 161° (SSE) 1,032 3.8 -18.4°
Maximum altitude 00:48:56 59° 96° (E) 702 3.3 -18.3°
Drops below altitude 10° 00:53:11 10° 17° (NNE) 1,955 6.9 -18.0°
Sets 00:55:25 0° 13° (NNE) 2,859 8.1 -17.9°
